Flag for Germany Weather past 2 weeks in Warendorf, North Rhine-Westphalia, Germany

48 °F

Light rain. Mostly cloudy.

Feels Like: 40 °F
Forecast: 42 / 52 °F
Wind: 24 mph from West

Location: Muenster / Osnabrueck

Current Time: Nov 29, 2015 at 10:32:09 PM

Latest Report: Nov 29, 2015 at 9:50 PM

Visibility: N/A

Pressure: 29.68 "Hg

Humidity: 87%

Dew point: 45 °F

Location of WarendorfLocation

Historic Weather in Warendorf — Graph


Warendorf temperature yesterday

Maximum temperature yesterday: 45 °F (at 10:50 AM)
Minimum temperature yesterday: 37 °F (at 4:20 AM)
Average temperature yesterday: 42 °F

Past Weeks' High & Low Weather Summary

High61 °F (Nov 17, 9:50 PM)100% (Nov 15, 4:50 AM)30.21 "Hg (Nov 15, 4:50 AM)
Low28 °F (Nov 27, 12:20 AM)57% (Nov 24, 12:20 PM)29.36 "Hg (Nov 21, 3:50 AM)
Average45 °F85%29.80 "Hg
* Reported Nov 14 9:20 PM — Nov 29 9:20 PM, Warendorf, Weather by CustomWeather, © 2015

Note: Actual official high and low records may vary slightly from our data, if they occured in-between our weather recording intervals... More about our weather records


Warendorf weather history for previous 24 hours

Time TempWeatherWind HumidityBarometerVisibility
9:20 PM
Sun, Nov 29
48 °FRain showers. Mostly cloudy.22 mph94%29.65 "Hg2 mi
8:50 PM52 °FThunderstorms. Mostly cloudy.29 mph88%29.59 "HgN/A
8:20 PM52 °FLight rain. Mostly cloudy.28 mph88%29.59 "HgN/A
7:50 PM52 °FLight rain. Mostly cloudy.22 mph88%29.59 "Hg4 mi
7:20 PM50 °FLight rain. Mostly cloudy.17 mph94%29.62 "HgN/A
6:50 PM52 °FLight rain. Mostly cloudy.24 mph82%29.65 "HgN/A
6:20 PM52 °FPartly cloudy.24 mph82%29.65 "HgN/A
5:50 PM52 °FPartly cloudy.22 mph77%29.62 "HgN/A
5:20 PM52 °FPartly cloudy.23 mph82%29.65 "HgN/A
4:50 PM50 °FSprinkles. Passing clouds.21 mph88%29.65 "HgN/A
4:20 PM52 °FPartly sunny.21 mph82%29.65 "HgN/A
3:50 PM50 °FPartly sunny.21 mph88%29.65 "HgN/A
3:20 PM50 °FLight rain. Partly sunny.20 mph88%29.65 "HgN/A
2:50 PM48 °FLight rain. More clouds than sun.14 mph94%29.65 "HgN/A
2:20 PM50 °FLight rain. More clouds than sun.14 mph82%29.68 "HgN/A
1:50 PM50 °FLight rain. Overcast.15 mph82%29.68 "HgN/A
1:20 PM50 °FMore clouds than sun.20 mph82%29.71 "HgN/A
12:50 PM50 °FBroken clouds.18 mph82%29.71 "HgN/A
12:20 PM50 °FBroken clouds.18 mph82%29.74 "HgN/A
11:50 AM50 °FBroken clouds.21 mph82%29.74 "HgN/A
11:20 AM50 °FPartly sunny.18 mph82%29.74 "HgN/A
10:50 AM48 °FSprinkles. Partly sunny.20 mph87%29.71 "HgN/A
10:20 AM48 °FSprinkles. Partly sunny.17 mph87%29.71 "Hg6 mi
9:50 AM48 °FSprinkles. Partly sunny.15 mph87%29.71 "Hg6 mi
9:20 AM46 °FSprinkles. Partly sunny.21 mph87%29.71 "Hg4 mi
8:50 AM46 °FSprinkles. Partly sunny.14 mph93%29.71 "Hg6 mi
8:20 AM46 °FPartly sunny.15 mph93%29.71 "HgN/A
7:50 AM46 °FSprinkles. Partly cloudy.14 mph93%29.71 "Hg6 mi
7:20 AM46 °FPartly cloudy.16 mph87%29.71 "HgN/A
6:20 AM46 °FLight rain. Passing clouds.15 mph87%29.71 "HgN/A
5:50 AM46 °FLight rain. Partly cloudy.14 mph87%29.71 "HgN/A
5:20 AM45 °FLight rain. Partly cloudy.13 mph93%29.71 "HgN/A
4:50 AM45 °FLight rain. Mostly cloudy.10 mph93%29.71 "HgN/A
4:20 AM45 °FLight rain. Partly cloudy.18 mph87%29.71 "HgN/A
3:50 AM45 °FPartly cloudy.17 mph87%29.71 "HgN/A
3:20 AM46 °FMostly cloudy.21 mph82%29.71 "HgN/A
2:50 AM45 °FOvercast.22 mph87%29.71 "HgN/A
2:20 AM45 °FLight rain. Overcast.23 mph87%29.71 "HgN/A
1:50 AM45 °FLight rain. Overcast.21 mph81%29.71 "HgN/A
1:20 AM43 °FLight rain. Overcast.21 mph87%29.71 "HgN/A
12:20 AM43 °FLight rain. Overcast.20 mph87%29.71 "HgN/A
11:50 PM
Sat, Nov 28
43 °FLight rain. Overcast.16 mph81%29.74 "HgN/A
11:20 PM45 °FPassing clouds.18 mph76%29.74 "HgN/A
10:50 PM43 °FPassing clouds.20 mph81%29.77 "HgN/A
10:20 PM43 °FLight rain. Passing clouds.17 mph81%29.80 "HgN/A
Weather by CustomWeather, © 2015

See weather overviewHow to use our weather pages